owner,sensor,date,latitude,longitude,vertical_datum,sea_water_temperature,qcFlag 
DISL,ioos:station:DISL:DISL:1,2011-02-01T00:00:00Z,30.2513,-88.0778,-1.72,14.17,2 
DISL,ioos:station:DISL:DISL:1,2011-02-01T00:30:00Z,30.2513,-88.0778,-1.72,14.12,2 
DISL,ioos:station:DISL:DISL:1,2011-02-01T01:00:00Z,30.2513,-88.0778,-1.72,14.07,2 
DISL,ioos:station:DISL:DISL:1,2011-02-01T01:30:00Z,30.2513,-88.0778,-1.72,14.04,2 
DISL,ioos:station:DISL:DISL:1,2011-02-01T02:00:00Z,30.2513,-88.0778,-1.72,14.05,2 
DISL,ioos:station:DISL:DISL:1,2011-02-01T02:30:00Z,30.2513,-88.0778,-1.72,14.06,2 
DISL,ioos:station:DISL:DISL:1,2011-02-01T03:00:00Z,30.2513,-88.0778,-1.72,14.06,2 
DISL,ioos:station:DISL:DISL:1,2011-02-01T03:30:00Z,30.2513,-88.0778,-1.72,14.08,2 
DISL,ioos:station:DISL:DISL:1,2011-02-01T04:00:00Z,30.2513,-88.0778,-1.72,14.13,2 
DISL,ioos:station:DISL:DISL:1,2011-02-01T04:30:00Z,30.2513,-88.0778,-1.72,14.12,2 
DISL,ioos:station:DISL:DISL:1,2011-02-01T05:00:00Z,30.2513,-88.0778,-1.72,14.12,2 
DISL,ioos:station:DISL:DISL:1,2011-02-01T05:30:00Z,30.2513,-88.0778,-1.72,14.13,2 
DISL,ioos:station:DISL:DISL:1,2011-02-01T06:00:00Z,30.2513,-88.0778,-1.72,14.13,2 
DISL,ioos:station:DISL:DISL:1,2011-02-01T06:30:00Z,30.2513,-88.0778,-1.72,14.13,2 
DISL,ioos:station:DISL:DISL:1,2011-02-01T07:00:00Z,30.2513,-88.0778,-1.72,13.66,2 
DISL,ioos:station:DISL:DISL:1,2011-02-01T07:30:00Z,30.2513,-88.0778,-1.72,13.38,2 
DISL,ioos:station:DISL:DISL:1,2011-02-01T08:00:00Z,30.2513,-88.0778,-1.72,13.3,2 
DISL,ioos:station:DISL:DISL:1,2011-02-01T08:30:00Z,30.2513,-88.0778,-1.72,13.28,2 
DISL,ioos:station:DISL:DISL:1,2011-02-01T09:00:00Z,30.2513,-88.0778,-1.72,13.26,2 
DISL,ioos:station:DISL:DISL:1,2011-02-01T09:30:00Z,30.2513,-88.0778,-1.72,13.17,2 
DISL,ioos:station:DISL:DISL:1,2011-02-01T10:00:00Z,30.2513,-88.0778,-1.72,13.19,2 
DISL,ioos:station:DISL:DISL:1,2011-02-01T10:30:00Z,30.2513,-88.0778,-1.72,13.18,2 
DISL,ioos:station:DISL:DISL:1,2011-02-01T11:00:00Z,30.2513,-88.0778,-1.72,13.18,2 
DISL,ioos:station:DISL:DISL:1,2011-02-01T11:30:00Z,30.2513,-88.0778,-1.72,13.17,2 
DISL,ioos:station:DISL:DISL:1,2011-02-01T12:00:00Z,30.2513,-88.0778,-1.72,13.16,2 
DISL,ioos:station:DISL:DISL:1,2011-02-01T12:30:00Z,30.2513,-88.0778,-1.72,13.17,2 
DISL,ioos:station:DISL:DISL:1,2011-02-01T13:00:00Z,30.2513,-88.0778,-1.72,13.17,2 
DISL,ioos:station:DISL:DISL:1,2011-02-01T13:30:00Z,30.2513,-88.0778,-1.72,13.17,2 
DISL,ioos:station:DISL:DISL:1,2011-02-01T14:00:00Z,30.2513,-88.0778,-1.72,13.18,2 
DISL,ioos:station:DISL:DISL:1,2011-02-01T14:30:00Z,30.2513,-88.0778,-1.72,13.17,2 
DISL,ioos:station:DISL:DISL:1,2011-02-01T15:00:00Z,30.2513,-88.0778,-1.72,13.21,2 
DISL,ioos:station:DISL:DISL:1,2011-02-01T15:30:00Z,30.2513,-88.0778,-1.72,13.17,2 
DISL,ioos:station:DISL:DISL:1,2011-02-01T16:00:00Z,30.2513,-88.0778,-1.72,13.36,2 
DISL,ioos:station:DISL:DISL:1,2011-02-01T16:30:00Z,30.2513,-88.0778,-1.72,13.5,2 
DISL,ioos:station:DISL:DISL:1,2011-02-01T17:00:00Z,30.2513,-88.0778,-1.72,13.51,2 
DISL,ioos:station:DISL:DISL:1,2011-02-01T17:30:00Z,30.2513,-88.0778,-1.72,13.54,2 
DISL,ioos:station:DISL:DISL:1,2011-02-01T18:00:00Z,30.2513,-88.0778,-1.72,13.55,2 
DISL,ioos:station:DISL:DISL:1,2011-02-01T18:30:00Z,30.2513,-88.0778,-1.72,13.62,2 
DISL,ioos:station:DISL:DISL:1,2011-02-01T19:00:00Z,30.2513,-88.0778,-1.72,13.8,2 
DISL,ioos:station:DISL:DISL:1,2011-02-01T19:30:00Z,30.2513,-88.0778,-1.72,13.67,2 
DISL,ioos:station:DISL:DISL:1,2011-02-01T20:00:00Z,30.2513,-88.0778,-1.72,13.72,2 
DISL,ioos:station:DISL:DISL:1,2011-02-01T20:30:00Z,30.2513,-88.0778,-1.72,13.82,2 
DISL,ioos:station:DISL:DISL:1,2011-02-01T21:00:00Z,30.2513,-88.0778,-1.72,13.89,2 
DISL,ioos:station:DISL:DISL:1,2011-02-01T21:30:00Z,30.2513,-88.0778,-1.72,14.12,2 
DISL,ioos:station:DISL:DISL:1,2011-02-01T22:00:00Z,30.2513,-88.0778,-1.72,14.25,2 
DISL,ioos:station:DISL:DISL:1,2011-02-01T22:30:00Z,30.2513,-88.0778,-1.72,14.73,2 
DISL,ioos:station:DISL:DISL:1,2011-02-01T23:00:00Z,30.2513,-88.0778,-1.72,14.94,2 
DISL,ioos:station:DISL:DISL:1,2011-02-01T23:30:00Z,30.2513,-88.0778,-1.72,15.1,2 
DISL,ioos:station:DISL:DISL:1,2011-02-02T00:00:00Z,30.2513,-88.0778,-1.72,15.09,2 
DISL,ioos:station:DISL:DISL:1,2011-02-02T00:30:00Z,30.2513,-88.0778,-1.72,15.24,2 
DISL,ioos:station:DISL:DISL:1,2011-02-02T01:00:00Z,30.2513,-88.0778,-1.72,15.32,2 
DISL,ioos:station:DISL:DISL:1,2011-02-02T01:30:00Z,30.2513,-88.0778,-1.72,15.43,2 
DISL,ioos:station:DISL:DISL:1,2011-02-02T02:00:00Z,30.2513,-88.0778,-1.72,15.33,2 
DISL,ioos:station:DISL:DISL:1,2011-02-02T02:30:00Z,30.2513,-88.0778,-1.72,15.34,2 
DISL,ioos:station:DISL:DISL:1,2011-02-02T03:00:00Z,30.2513,-88.0778,-1.72,15.37,2 
DISL,ioos:station:DISL:DISL:1,2011-02-02T03:30:00Z,30.2513,-88.0778,-1.72,15.39,2 
DISL,ioos:station:DISL:DISL:1,2011-02-02T04:00:00Z,30.2513,-88.0778,-1.72,15.17,2 
DISL,ioos:station:DISL:DISL:1,2011-02-02T04:30:00Z,30.2513,-88.0778,-1.72,14.55,2 
DISL,ioos:station:DISL:DISL:1,2011-02-02T05:00:00Z,30.2513,-88.0778,-1.72,14.54,2 
DISL,ioos:station:DISL:DISL:1,2011-02-02T05:30:00Z,30.2513,-88.0778,-1.72,14.77,2 
DISL,ioos:station:DISL:DISL:1,2011-02-02T06:00:00Z,30.2513,-88.0778,-1.72,15.17,2 
DISL,ioos:station:DISL:DISL:1,2011-02-02T06:30:00Z,30.2513,-88.0778,-1.72,15.03,2 
DISL,ioos:station:DISL:DISL:1,2011-02-02T07:00:00Z,30.2513,-88.0778,-1.72,14.7,2 
DISL,ioos:station:DISL:DISL:1,2011-02-02T07:30:00Z,30.2513,-88.0778,-1.72,14.46,2 
DISL,ioos:station:DISL:DISL:1,2011-02-02T08:00:00Z,30.2513,-88.0778,-1.72,14.2,2 
DISL,ioos:station:DISL:DISL:1,2011-02-02T08:30:00Z,30.2513,-88.0778,-1.72,14.09,2 
DISL,ioos:station:DISL:DISL:1,2011-02-02T09:00:00Z,30.2513,-88.0778,-1.72,13.98,2 
DISL,ioos:station:DISL:DISL:1,2011-02-02T09:30:00Z,30.2513,-88.0778,-1.72,13.24,2 
DISL,ioos:station:DISL:DISL:1,2011-02-02T10:00:00Z,30.2513,-88.0778,-1.72,13.11,2 
DISL,ioos:station:DISL:DISL:1,2011-02-02T10:30:00Z,30.2513,-88.0778,-1.72,12.91,2 
DISL,ioos:station:DISL:DISL:1,2011-02-02T11:00:00Z,30.2513,-88.0778,-1.72,12.77,2 
DISL,ioos:station:DISL:DISL:1,2011-02-02T11:30:00Z,30.2513,-88.0778,-1.72,12.82,2 
DISL,ioos:station:DISL:DISL:1,2011-02-02T12:00:00Z,30.2513,-88.0778,-1.72,12.78,2 
DISL,ioos:station:DISL:DISL:1,2011-02-02T12:30:00Z,30.2513,-88.0778,-1.72,12.72,2 
DISL,ioos:station:DISL:DISL:1,2011-02-02T13:00:00Z,30.2513,-88.0778,-1.72,12.63,2 
DISL,ioos:station:DISL:DISL:1,2011-02-02T13:30:00Z,30.2513,-88.0778,-1.72,12.58,2 
DISL,ioos:station:DISL:DISL:1,2011-02-02T14:00:00Z,30.2513,-88.0778,-1.72,12.3,2 
DISL,ioos:station:DISL:DISL:1,2011-02-02T14:30:00Z,30.2513,-88.0778,-1.72,12.0,2 
DISL,ioos:station:DISL:DISL:1,2011-02-02T15:00:00Z,30.2513,-88.0778,-1.72,11.41,2 
DISL,ioos:station:DISL:DISL:1,2011-02-02T15:30:00Z,30.2513,-88.0778,-1.72,11.49,2 
DISL,ioos:station:DISL:DISL:1,2011-02-02T16:00:00Z,30.2513,-88.0778,-1.72,11.3,2 
DISL,ioos:station:DISL:DISL:1,2011-02-02T16:30:00Z,30.2513,-88.0778,-1.72,11.62,2 
DISL,ioos:station:DISL:DISL:1,2011-02-02T17:00:00Z,30.2513,-88.0778,-1.72,11.72,2 
DISL,ioos:station:DISL:DISL:1,2011-02-02T17:30:00Z,30.2513,-88.0778,-1.72,11.81,2 
DISL,ioos:station:DISL:DISL:1,2011-02-02T18:00:00Z,30.2513,-88.0778,-1.72,12.24,2 
DISL,ioos:station:DISL:DISL:1,2011-02-02T18:30:00Z,30.2513,-88.0778,-1.72,12.13,2 
DISL,ioos:station:DISL:DISL:1,2011-02-02T19:00:00Z,30.2513,-88.0778,-1.72,12.07,2 
DISL,ioos:station:DISL:DISL:1,2011-02-02T19:30:00Z,30.2513,-88.0778,-1.72,11.76,2 
DISL,ioos:station:DISL:DISL:1,2011-02-02T20:00:00Z,30.2513,-88.0778,-1.72,11.3,2 
DISL,ioos:station:DISL:DISL:1,2011-02-02T20:30:00Z,30.2513,-88.0778,-1.72,11.35,2 
DISL,ioos:station:DISL:DISL:1,2011-02-02T21:00:00Z,30.2513,-88.0778,-1.72,11.16,2 
DISL,ioos:station:DISL:DISL:1,2011-02-02T21:30:00Z,30.2513,-88.0778,-1.72,10.88,2 
DISL,ioos:station:DISL:DISL:1,2011-02-02T22:00:00Z,30.2513,-88.0778,-1.72,10.69,2 
DISL,ioos:station:DISL:DISL:1,2011-02-02T22:30:00Z,30.2513,-88.0778,-1.72,10.0,2 
DISL,ioos:station:DISL:DISL:1,2011-02-02T23:00:00Z,30.2513,-88.0778,-1.72,10.34,2 
DISL,ioos:station:DISL:DISL:1,2011-02-02T23:30:00Z,30.2513,-88.0778,-1.72,9.77,2 
DISL,ioos:station:DISL:DISL:1,2011-02-03T00:00:00Z,30.2513,-88.0778,-1.72,9.78,2 
DISL,ioos:station:DISL:DISL:1,2011-02-03T00:30:00Z,30.2513,-88.0778,-1.72,9.81,2 
DISL,ioos:station:DISL:DISL:1,2011-02-03T01:00:00Z,30.2513,-88.0778,-1.72,10.27,2 
DISL,ioos:station:DISL:DISL:1,2011-02-03T01:30:00Z,30.2513,-88.0778,-1.72,9.5,2 
DISL,ioos:station:DISL:DISL:1,2011-02-03T02:00:00Z,30.2513,-88.0778,-1.72,9.3,2 
DISL,ioos:station:DISL:DISL:1,2011-02-03T02:30:00Z,30.2513,-88.0778,-1.72,9.98,2 
DISL,ioos:station:DISL:DISL:1,2011-02-03T03:00:00Z,30.2513,-88.0778,-1.72,10.04,2 
DISL,ioos:station:DISL:DISL:1,2011-02-03T03:30:00Z,30.2513,-88.0778,-1.72,9.93,2 
DISL,ioos:station:DISL:DISL:1,2011-02-03T04:00:00Z,30.2513,-88.0778,-1.72,9.38,2 
DISL,ioos:station:DISL:DISL:1,2011-02-03T04:30:00Z,30.2513,-88.0778,-1.72,9.19,2 
DISL,ioos:station:DISL:DISL:1,2011-02-03T05:00:00Z,30.2513,-88.0778,-1.72,9.13,2 
DISL,ioos:station:DISL:DISL:1,2011-02-03T05:30:00Z,30.2513,-88.0778,-1.72,9.2,2 
DISL,ioos:station:DISL:DISL:1,2011-02-03T06:00:00Z,30.2513,-88.0778,-1.72,9.07,2 
DISL,ioos:station:DISL:DISL:1,2011-02-03T06:30:00Z,30.2513,-88.0778,-1.72,8.79,2 
DISL,ioos:station:DISL:DISL:1,2011-02-03T07:00:00Z,30.2513,-88.0778,-1.72,8.66,2 
DISL,ioos:station:DISL:DISL:1,2011-02-03T07:30:00Z,30.2513,-88.0778,-1.72,8.88,2 
DISL,ioos:station:DISL:DISL:1,2011-02-03T08:00:00Z,30.2513,-88.0778,-1.72,9.09,2 
DISL,ioos:station:DISL:DISL:1,2011-02-03T08:30:00Z,30.2513,-88.0778,-1.72,8.33,2 
DISL,ioos:station:DISL:DISL:1,2011-02-03T09:00:00Z,30.2513,-88.0778,-1.72,8.51,2 
DISL,ioos:station:DISL:DISL:1,2011-02-03T09:30:00Z,30.2513,-88.0778,-1.72,8.2,2 
DISL,ioos:station:DISL:DISL:1,2011-02-03T10:00:00Z,30.2513,-88.0778,-1.72,8.11,2 
DISL,ioos:station:DISL:DISL:1,2011-02-03T10:30:00Z,30.2513,-88.0778,-1.72,8.15,2 
DISL,ioos:station:DISL:DISL:1,2011-02-03T11:00:00Z,30.2513,-88.0778,-1.72,8.8,2 
DISL,ioos:station:DISL:DISL:1,2011-02-03T11:30:00Z,30.2513,-88.0778,-1.72,8.69,2 
DISL,ioos:station:DISL:DISL:1,2011-02-03T12:00:00Z,30.2513,-88.0778,-1.72,9.23,2 
DISL,ioos:station:DISL:DISL:1,2011-02-03T12:30:00Z,30.2513,-88.0778,-1.72,9.27,2 
DISL,ioos:station:DISL:DISL:1,2011-02-03T13:00:00Z,30.2513,-88.0778,-1.72,9.61,2 
DISL,ioos:station:DISL:DISL:1,2011-02-03T13:30:00Z,30.2513,-88.0778,-1.72,9.86,2 
DISL,ioos:station:DISL:DISL:1,2011-02-03T14:00:00Z,30.2513,-88.0778,-1.72,10.04,2 
DISL,ioos:station:DISL:DISL:1,2011-02-03T14:30:00Z,30.2513,-88.0778,-1.72,10.04,2 
DISL,ioos:station:DISL:DISL:1,2011-02-03T15:00:00Z,30.2513,-88.0778,-1.72,9.85,2 
DISL,ioos:station:DISL:DISL:1,2011-02-03T15:30:00Z,30.2513,-88.0778,-1.72,8.62,2 
DISL,ioos:station:DISL:DISL:1,2011-02-03T16:00:00Z,30.2513,-88.0778,-1.72,8.89,2 
DISL,ioos:station:DISL:DISL:1,2011-02-03T16:30:00Z,30.2513,-88.0778,-1.72,8.96,2 
DISL,ioos:station:DISL:DISL:1,2011-02-03T17:00:00Z,30.2513,-88.0778,-1.72,8.72,2 
DISL,ioos:station:DISL:DISL:1,2011-02-03T17:30:00Z,30.2513,-88.0778,-1.72,8.07,2 
DISL,ioos:station:DISL:DISL:1,2011-02-03T18:00:00Z,30.2513,-88.0778,-1.72,9.13,2 
DISL,ioos:station:DISL:DISL:1,2011-02-03T18:30:00Z,30.2513,-88.0778,-1.72,9.23,2 
DISL,ioos:station:DISL:DISL:1,2011-02-03T19:00:00Z,30.2513,-88.0778,-1.72,8.6,2 
DISL,ioos:station:DISL:DISL:1,2011-02-03T19:30:00Z,30.2513,-88.0778,-1.72,8.66,2 
DISL,ioos:station:DISL:DISL:1,2011-02-03T20:00:00Z,30.2513,-88.0778,-1.72,8.61,2 
DISL,ioos:station:DISL:DISL:1,2011-02-03T20:30:00Z,30.2513,-88.0778,-1.72,8.49,2 
DISL,ioos:station:DISL:DISL:1,2011-02-03T21:00:00Z,30.2513,-88.0778,-1.72,8.69,2 
DISL,ioos:station:DISL:DISL:1,2011-02-03T21:30:00Z,30.2513,-88.0778,-1.72,8.73,2 
DISL,ioos:station:DISL:DISL:1,2011-02-03T22:00:00Z,30.2513,-88.0778,-1.72,8.33,2 
DISL,ioos:station:DISL:DISL:1,2011-02-03T22:30:00Z,30.2513,-88.0778,-1.72,8.04,2 
DISL,ioos:station:DISL:DISL:1,2011-02-03T23:00:00Z,30.2513,-88.0778,-1.72,7.73,2 
DISL,ioos:station:DISL:DISL:1,2011-02-03T23:30:00Z,30.2513,-88.0778,-1.72,7.79,2 
DISL,ioos:station:DISL:DISL:1,2011-02-04T00:00:00Z,30.2513,-88.0778,-1.72,8.48,2 
DISL,ioos:station:DISL:DISL:1,2011-02-04T00:30:00Z,30.2513,-88.0778,-1.72,8.03,2 
DISL,ioos:station:DISL:DISL:1,2011-02-04T01:00:00Z,30.2513,-88.0778,-1.72,8.41,2 
DISL,ioos:station:DISL:DISL:1,2011-02-04T01:30:00Z,30.2513,-88.0778,-1.72,8.57,2 
DISL,ioos:station:DISL:DISL:1,2011-02-04T02:00:00Z,30.2513,-88.0778,-1.72,8.63,2 
DISL,ioos:station:DISL:DISL:1,2011-02-04T02:30:00Z,30.2513,-88.0778,-1.72,9.29,2 
DISL,ioos:station:DISL:DISL:1,2011-02-04T03:00:00Z,30.2513,-88.0778,-1.72,11.46,2 
DISL,ioos:station:DISL:DISL:1,2011-02-04T03:30:00Z,30.2513,-88.0778,-1.72,11.59,2 
DISL,ioos:station:DISL:DISL:1,2011-02-04T04:00:00Z,30.2513,-88.0778,-1.72,11.06,2 
DISL,ioos:station:DISL:DISL:1,2011-02-04T04:30:00Z,30.2513,-88.0778,-1.72,10.7,2 
DISL,ioos:station:DISL:DISL:1,2011-02-04T05:00:00Z,30.2513,-88.0778,-1.72,10.43,2 
DISL,ioos:station:DISL:DISL:1,2011-02-04T05:30:00Z,30.2513,-88.0778,-1.72,8.87,2 
DISL,ioos:station:DISL:DISL:1,2011-02-04T06:00:00Z,30.2513,-88.0778,-1.72,8.31,2 
DISL,ioos:station:DISL:DISL:1,2011-02-04T06:30:00Z,30.2513,-88.0778,-1.72,7.71,2 
DISL,ioos:station:DISL:DISL:1,2011-02-04T07:00:00Z,30.2513,-88.0778,-1.72,8.89,2 
DISL,ioos:station:DISL:DISL:1,2011-02-04T07:30:00Z,30.2513,-88.0778,-1.72,8.72,2 
DISL,ioos:station:DISL:DISL:1,2011-02-04T08:00:00Z,30.2513,-88.0778,-1.72,8.87,2 
DISL,ioos:station:DISL:DISL:1,2011-02-04T08:30:00Z,30.2513,-88.0778,-1.72,8.07,2 
DISL,ioos:station:DISL:DISL:1,2011-02-04T09:00:00Z,30.2513,-88.0778,-1.72,7.89,2 
DISL,ioos:station:DISL:DISL:1,2011-02-04T09:30:00Z,30.2513,-88.0778,-1.72,8.21,2 
DISL,ioos:station:DISL:DISL:1,2011-02-04T10:00:00Z,30.2513,-88.0778,-1.72,8.03,2 
DISL,ioos:station:DISL:DISL:1,2011-02-04T10:30:00Z,30.2513,-88.0778,-1.72,8.29,2 
DISL,ioos:station:DISL:DISL:1,2011-02-04T11:00:00Z,30.2513,-88.0778,-1.72,8.62,2 
DISL,ioos:station:DISL:DISL:1,2011-02-04T11:30:00Z,30.2513,-88.0778,-1.72,8.62,2 
DISL,ioos:station:DISL:DISL:1,2011-02-04T12:00:00Z,30.2513,-88.0778,-1.72,8.62,2 
DISL,ioos:station:DISL:DISL:1,2011-02-04T12:30:00Z,30.2513,-88.0778,-1.72,8.64,2 
DISL,ioos:station:DISL:DISL:1,2011-02-04T13:00:00Z,30.2513,-88.0778,-1.72,8.7,2 
DISL,ioos:station:DISL:DISL:1,2011-02-04T13:30:00Z,30.2513,-88.0778,-1.72,8.68,2 
DISL,ioos:station:DISL:DISL:1,2011-02-04T14:00:00Z,30.2513,-88.0778,-1.72,8.65,2 
DISL,ioos:station:DISL:DISL:1,2011-02-04T14:30:00Z,30.2513,-88.0778,-1.72,8.62,2 
DISL,ioos:station:DISL:DISL:1,2011-02-04T15:00:00Z,30.2513,-88.0778,-1.72,8.63,2 
DISL,ioos:station:DISL:DISL:1,2011-02-04T15:30:00Z,30.2513,-88.0778,-1.72,8.77,2 
DISL,ioos:station:DISL:DISL:1,2011-02-04T16:00:00Z,30.2513,-88.0778,-1.72,9.4,2 
DISL,ioos:station:DISL:DISL:1,2011-02-04T16:30:00Z,30.2513,-88.0778,-1.72,9.1,2 
DISL,ioos:station:DISL:DISL:1,2011-02-04T17:00:00Z,30.2513,-88.0778,-1.72,8.92,2 
DISL,ioos:station:DISL:DISL:1,2011-02-04T17:30:00Z,30.2513,-88.0778,-1.72,8.72,2 
DISL,ioos:station:DISL:DISL:1,2011-02-04T18:00:00Z,30.2513,-88.0778,-1.72,8.61,2 
DISL,ioos:station:DISL:DISL:1,2011-02-04T18:30:00Z,30.2513,-88.0778,-1.72,8.24,2 
DISL,ioos:station:DISL:DISL:1,2011-02-04T19:00:00Z,30.2513,-88.0778,-1.72,8.29,2 
DISL,ioos:station:DISL:DISL:1,2011-02-04T19:30:00Z,30.2513,-88.0778,-1.72,8.28,2 
DISL,ioos:station:DISL:DISL:1,2011-02-04T20:00:00Z,30.2513,-88.0778,-1.72,8.31,2 
DISL,ioos:station:DISL:DISL:1,2011-02-04T20:30:00Z,30.2513,-88.0778,-1.72,8.39,2 
DISL,ioos:station:DISL:DISL:1,2011-02-04T21:00:00Z,30.2513,-88.0778,-1.72,8.5,2 
DISL,ioos:station:DISL:DISL:1,2011-02-04T21:30:00Z,30.2513,-88.0778,-1.72,8.54,2 
DISL,ioos:station:DISL:DISL:1,2011-02-04T22:00:00Z,30.2513,-88.0778,-1.72,8.56,2 
DISL,ioos:station:DISL:DISL:1,2011-02-04T22:30:00Z,30.2513,-88.0778,-1.72,8.62,2 
DISL,ioos:station:DISL:DISL:1,2011-02-04T23:00:00Z,30.2513,-88.0778,-1.72,8.68,2 
DISL,ioos:station:DISL:DISL:1,2011-02-04T23:30:00Z,30.2513,-88.0778,-1.72,8.76,2 
DISL,ioos:station:DISL:DISL:1,2011-02-05T00:00:00Z,30.2513,-88.0778,-1.72,9.82,2 
DISL,ioos:station:DISL:DISL:1,2011-02-05T00:30:00Z,30.2513,-88.0778,-1.72,9.86,2 
DISL,ioos:station:DISL:DISL:1,2011-02-05T01:00:00Z,30.2513,-88.0778,-1.72,9.4,2 
DISL,ioos:station:DISL:DISL:1,2011-02-05T01:30:00Z,30.2513,-88.0778,-1.72,8.64,2 
DISL,ioos:station:DISL:DISL:1,2011-02-05T02:00:00Z,30.2513,-88.0778,-1.72,8.32,2 
DISL,ioos:station:DISL:DISL:1,2011-02-05T02:30:00Z,30.2513,-88.0778,-1.72,8.28,2 
DISL,ioos:station:DISL:DISL:1,2011-02-05T03:00:00Z,30.2513,-88.0778,-1.72,8.1,2 
DISL,ioos:station:DISL:DISL:1,2011-02-05T03:30:00Z,30.2513,-88.0778,-1.72,7.96,2 
DISL,ioos:station:DISL:DISL:1,2011-02-05T04:00:00Z,30.2513,-88.0778,-1.72,10.2,2 
DISL,ioos:station:DISL:DISL:1,2011-02-05T04:30:00Z,30.2513,-88.0778,-1.72,11.72,2 
DISL,ioos:station:DISL:DISL:1,2011-02-05T05:00:00Z,30.2513,-88.0778,-1.72,12.04,2 
DISL,ioos:station:DISL:DISL:1,2011-02-05T05:30:00Z,30.2513,-88.0778,-1.72,12.15,2 
DISL,ioos:station:DISL:DISL:1,2011-02-05T06:00:00Z,30.2513,-88.0778,-1.72,12.2,2 
DISL,ioos:station:DISL:DISL:1,2011-02-05T06:30:00Z,30.2513,-88.0778,-1.72,12.35,2 
DISL,ioos:station:DISL:DISL:1,2011-02-05T07:00:00Z,30.2513,-88.0778,-1.72,10.85,2 
DISL,ioos:station:DISL:DISL:1,2011-02-05T07:30:00Z,30.2513,-88.0778,-1.72,7.91,2 
DISL,ioos:station:DISL:DISL:1,2011-02-05T08:00:00Z,30.2513,-88.0778,-1.72,7.71,2 
DISL,ioos:station:DISL:DISL:1,2011-02-05T08:30:00Z,30.2513,-88.0778,-1.72,7.72,2 
DISL,ioos:station:DISL:DISL:1,2011-02-05T09:00:00Z,30.2513,-88.0778,-1.72,7.7,2 
DISL,ioos:station:DISL:DISL:1,2011-02-05T09:30:00Z,30.2513,-88.0778,-1.72,7.68,2 
DISL,ioos:station:DISL:DISL:1,2011-02-05T10:00:00Z,30.2513,-88.0778,-1.72,7.68,2 
DISL,ioos:station:DISL:DISL:1,2011-02-05T10:30:00Z,30.2513,-88.0778,-1.72,7.69,2 
DISL,ioos:station:DISL:DISL:1,2011-02-05T11:00:00Z,30.2513,-88.0778,-1.72,7.62,2 
DISL,ioos:station:DISL:DISL:1,2011-02-05T11:30:00Z,30.2513,-88.0778,-1.72,7.57,2 
DISL,ioos:station:DISL:DISL:1,2011-02-05T12:00:00Z,30.2513,-88.0778,-1.72,7.52,2 
DISL,ioos:station:DISL:DISL:1,2011-02-05T12:30:00Z,30.2513,-88.0778,-1.72,7.47,2 
DISL,ioos:station:DISL:DISL:1,2011-02-05T13:00:00Z,30.2513,-88.0778,-1.72,7.47,2 
DISL,ioos:station:DISL:DISL:1,2011-02-05T13:30:00Z,30.2513,-88.0778,-1.72,7.42,2 
DISL,ioos:station:DISL:DISL:1,2011-02-05T14:00:00Z,30.2513,-88.0778,-1.72,7.84,2 
DISL,ioos:station:DISL:DISL:1,2011-02-05T14:30:00Z,30.2513,-88.0778,-1.72,7.9,2 
DISL,ioos:station:DISL:DISL:1,2011-02-05T15:00:00Z,30.2513,-88.0778,-1.72,8.01,2 
DISL,ioos:station:DISL:DISL:1,2011-02-05T15:30:00Z,30.2513,-88.0778,-1.72,7.98,2 
DISL,ioos:station:DISL:DISL:1,2011-02-05T16:00:00Z,30.2513,-88.0778,-1.72,7.89,2 
DISL,ioos:station:DISL:DISL:1,2011-02-05T16:30:00Z,30.2513,-88.0778,-1.72,7.9,2 
DISL,ioos:station:DISL:DISL:1,2011-02-05T17:00:00Z,30.2513,-88.0778,-1.72,7.87,2 
DISL,ioos:station:DISL:DISL:1,2011-02-05T17:30:00Z,30.2513,-88.0778,-1.72,7.9,2 
DISL,ioos:station:DISL:DISL:1,2011-02-05T18:00:00Z,30.2513,-88.0778,-1.72,7.88,2 
DISL,ioos:station:DISL:DISL:1,2011-02-05T18:30:00Z,30.2513,-88.0778,-1.72,7.81,2 
DISL,ioos:station:DISL:DISL:1,2011-02-05T19:00:00Z,30.2513,-88.0778,-1.72,7.77,2 
DISL,ioos:station:DISL:DISL:1,2011-02-05T19:30:00Z,30.2513,-88.0778,-1.72,8.03,2 
DISL,ioos:station:DISL:DISL:1,2011-02-05T20:00:00Z,30.2513,-88.0778,-1.72,8.18,2 
DISL,ioos:station:DISL:DISL:1,2011-02-05T20:30:00Z,30.2513,-88.0778,-1.72,8.01,2 
DISL,ioos:station:DISL:DISL:1,2011-02-05T21:00:00Z,30.2513,-88.0778,-1.72,7.88,2 
DISL,ioos:station:DISL:DISL:1,2011-02-05T21:30:00Z,30.2513,-88.0778,-1.72,7.85,2 
DISL,ioos:station:DISL:DISL:1,2011-02-05T22:00:00Z,30.2513,-88.0778,-1.72,7.96,2 
DISL,ioos:station:DISL:DISL:1,2011-02-05T22:30:00Z,30.2513,-88.0778,-1.72,7.99,2 
DISL,ioos:station:DISL:DISL:1,2011-02-05T23:00:00Z,30.2513,-88.0778,-1.72,8.22,2 
DISL,ioos:station:DISL:DISL:1,2011-02-05T23:30:00Z,30.2513,-88.0778,-1.72,8.33,2 
DISL,ioos:station:DISL:DISL:1,2011-02-06T00:00:00Z,30.2513,-88.0778,-1.72,8.34,2 
DISL,ioos:station:DISL:DISL:1,2011-02-06T00:30:00Z,30.2513,-88.0778,-1.72,8.29,2 
DISL,ioos:station:DISL:DISL:1,2011-02-06T01:00:00Z,30.2513,-88.0778,-1.72,8.27,2 
DISL,ioos:station:DISL:DISL:1,2011-02-06T01:30:00Z,30.2513,-88.0778,-1.72,8.41,2 
DISL,ioos:station:DISL:DISL:1,2011-02-06T02:00:00Z,30.2513,-88.0778,-1.72,8.31,2 
DISL,ioos:station:DISL:DISL:1,2011-02-06T02:30:00Z,30.2513,-88.0778,-1.72,8.34,2 
DISL,ioos:station:DISL:DISL:1,2011-02-06T03:00:00Z,30.2513,-88.0778,-1.72,8.33,2 
DISL,ioos:station:DISL:DISL:1,2011-02-06T03:30:00Z,30.2513,-88.0778,-1.72,8.37,2 
DISL,ioos:station:DISL:DISL:1,2011-02-06T04:00:00Z,30.2513,-88.0778,-1.72,8.52,2 
DISL,ioos:station:DISL:DISL:1,2011-02-06T04:30:00Z,30.2513,-88.0778,-1.72,9.27,2 
DISL,ioos:station:DISL:DISL:1,2011-02-06T05:00:00Z,30.2513,-88.0778,-1.72,8.31,2 
DISL,ioos:station:DISL:DISL:1,2011-02-06T05:30:00Z,30.2513,-88.0778,-1.72,8.15,2 
DISL,ioos:station:DISL:DISL:1,2011-02-06T06:00:00Z,30.2513,-88.0778,-1.72,8.03,2 
DISL,ioos:station:DISL:DISL:1,2011-02-06T06:30:00Z,30.2513,-88.0778,-1.72,7.82,2 
DISL,ioos:station:DISL:DISL:1,2011-02-06T07:00:00Z,30.2513,-88.0778,-1.72,7.6,2 
DISL,ioos:station:DISL:DISL:1,2011-02-06T07:30:00Z,30.2513,-88.0778,-1.72,7.58,2 
DISL,ioos:station:DISL:DISL:1,2011-02-06T08:00:00Z,30.2513,-88.0778,-1.72,7.55,2 
DISL,ioos:station:DISL:DISL:1,2011-02-06T08:30:00Z,30.2513,-88.0778,-1.72,7.72,2 
DISL,ioos:station:DISL:DISL:1,2011-02-06T09:00:00Z,30.2513,-88.0778,-1.72,7.52,2 
DISL,ioos:station:DISL:DISL:1,2011-02-06T09:30:00Z,30.2513,-88.0778,-1.72,7.61,2 
DISL,ioos:station:DISL:DISL:1,2011-02-06T10:00:00Z,30.2513,-88.0778,-1.72,7.45,2 
DISL,ioos:station:DISL:DISL:1,2011-02-06T10:30:00Z,30.2513,-88.0778,-1.72,7.46,2 
DISL,ioos:station:DISL:DISL:1,2011-02-06T11:00:00Z,30.2513,-88.0778,-1.72,7.32,2 
DISL,ioos:station:DISL:DISL:1,2011-02-06T11:30:00Z,30.2513,-88.0778,-1.72,7.7,2 
DISL,ioos:station:DISL:DISL:1,2011-02-06T12:00:00Z,30.2513,-88.0778,-1.72,7.89,2 
DISL,ioos:station:DISL:DISL:1,2011-02-06T12:30:00Z,30.2513,-88.0778,-1.72,8.04,2 
DISL,ioos:station:DISL:DISL:1,2011-02-06T13:00:00Z,30.2513,-88.0778,-1.72,7.91,2 
DISL,ioos:station:DISL:DISL:1,2011-02-06T13:30:00Z,30.2513,-88.0778,-1.72,7.89,2 
DISL,ioos:station:DISL:DISL:1,2011-02-06T14:00:00Z,30.2513,-88.0778,-1.72,7.95,2 
DISL,ioos:station:DISL:DISL:1,2011-02-06T14:30:00Z,30.2513,-88.0778,-1.72,7.54,2 
DISL,ioos:station:DISL:DISL:1,2011-02-06T15:00:00Z,30.2513,-88.0778,-1.72,7.68,2 
DISL,ioos:station:DISL:DISL:1,2011-02-06T15:30:00Z,30.2513,-88.0778,-1.72,7.77,2 
DISL,ioos:station:DISL:DISL:1,2011-02-06T16:00:00Z,30.2513,-88.0778,-1.72,7.86,2 
DISL,ioos:station:DISL:DISL:1,2011-02-06T16:30:00Z,30.2513,-88.0778,-1.72,8.13,2 
DISL,ioos:station:DISL:DISL:1,2011-02-06T17:00:00Z,30.2513,-88.0778,-1.72,8.6,2 
DISL,ioos:station:DISL:DISL:1,2011-02-06T17:30:00Z,30.2513,-88.0778,-1.72,8.97,2 
DISL,ioos:station:DISL:DISL:1,2011-02-06T18:00:00Z,30.2513,-88.0778,-1.72,9.0,2 
DISL,ioos:station:DISL:DISL:1,2011-02-06T18:30:00Z,30.2513,-88.0778,-1.72,8.75,2 
DISL,ioos:station:DISL:DISL:1,2011-02-06T19:00:00Z,30.2513,-88.0778,-1.72,8.66,2 
DISL,ioos:station:DISL:DISL:1,2011-02-06T19:30:00Z,30.2513,-88.0778,-1.72,8.75,2 
DISL,ioos:station:DISL:DISL:1,2011-02-06T20:00:00Z,30.2513,-88.0778,-1.72,8.86,2 
DISL,ioos:station:DISL:DISL:1,2011-02-06T20:30:00Z,30.2513,-88.0778,-1.72,8.88,2 
DISL,ioos:station:DISL:DISL:1,2011-02-06T21:00:00Z,30.2513,-88.0778,-1.72,8.99,2 
DISL,ioos:station:DISL:DISL:1,2011-02-06T21:30:00Z,30.2513,-88.0778,-1.72,9.0,2 
DISL,ioos:station:DISL:DISL:1,2011-02-06T22:00:00Z,30.2513,-88.0778,-1.72,8.99,2 
DISL,ioos:station:DISL:DISL:1,2011-02-06T22:30:00Z,30.2513,-88.0778,-1.72,9.09,2 
DISL,ioos:station:DISL:DISL:1,2011-02-06T23:00:00Z,30.2513,-88.0778,-1.72,9.12,2 
DISL,ioos:station:DISL:DISL:1,2011-02-06T23:30:00Z,30.2513,-88.0778,-1.72,9.14,2 
DISL,ioos:station:DISL:DISL:1,2011-02-07T00:00:00Z,30.2513,-88.0778,-1.72,9.8,2 
DISL,ioos:station:DISL:DISL:1,2011-02-07T00:30:00Z,30.2513,-88.0778,-1.72,9.25,2 